Location: Earls Croome
(52.0667°N, 2.2000°W)
Time: 10:10:26
(UTC+00:00)

Cosmos 1408 - Pass Details

Date: 17 November 2019
Orbit: 470 x 497 km, 82.6° (Epoch: 09 December)

Event Time Altitude Azimuth Distance (km) Brightness Sun altitude
Rises 05:08:16 0° 170° (S) 2,566 6.4 -21.7°
Reaches altitude 10° 05:10:27 10° 162° (SSE) 1,685 5.5 -21.4°
Maximum altitude 05:13:54 39° 93° (E) 757 4.0 -20.9°
Drops below altitude 10° 05:17:21 10° 24° (NNE) 1,686 5.5 -20.3°
Sets 05:19:32 0° 17° (NNE) 2,567 6.4 -20.0°
